CW2274 Weather Reports


time (UTC)temp
F
wind
direction
speed
knots
gust
knots
rain 1hr
in
rain 24hr
in
rain mn
in
humidity
%
barometer
mb
20260508115516 59 188 0.0 0.9 0.00 0.00 0.00 45 1015.3
20260508115012 60 188 0.0 0.9 0.00 0.00 0.00 45 1015.2
20260508114512 59 188 0.9 1.7 0.00 0.00 0.00 46 1015.3
20260508114028 59 188 0.9 1.7 0.00 0.00 0.00 47 1015.2
20260508113524 58 188 0.0 1.7 0.00 0.00 0.00 48 1015.1
20260508113021 58 188 0.9 1.7 0.00 0.00 0.00 49 1015.0
20260508112517 59 188 0.0 0.9 0.00 0.00 0.00 47 1014.9
20260508112012 59 188 0.0 0.9 0.00 0.00 0.00 48 1015.0
20260508111528 58 188 0.9 0.9 0.00 0.00 0.00 48 1014.9
20260508111028 59 188 0.0 0.0 0.00 0.00 0.00 46 1014.8
20260508110524 60 188 0.0 0.0 0.00 0.00 0.00 45 1014.8
20260508110031 60 188 0.0 0.0 0.00 0.00 0.00 45 1014.8
20260508105512 60 188 0.0 0.9 0.00 0.00 0.00 45 1014.8
20260508105028 61 188 0.9 0.9 0.00 0.00 0.00 44 1014.8
20260508104524 60 188 0.9 0.9 0.00 0.00 0.00 44 1014.7
20260508104020 62 188 0.9 1.7 0.00 0.00 0.00 41 1014.7
20260508103520 62 188 0.0 1.7 0.00 0.00 0.00 40 1014.7
20260508103016 60 188 0.9 1.7 0.00 0.00 0.00 45 1014.8
20260508102511 60 188 0.0 0.0 0.00 0.00 0.00 44 1014.8
20260508102027 61 188 0.0 1.7 0.00 0.00 0.00 44 1014.9
20260508101523 60 188 0.0 1.7 0.00 0.00 0.00 44 1014.8
20260508101019 61 188 0.9 1.7 0.00 0.00 0.00 43 1014.8
20260508100515 61 188 0.9 0.9 0.00 0.00 0.00 42 1014.8
20260508100026 62 188 0.9 1.7 0.00 0.00 0.00 41 1014.8
20260508095527 61 188 0.9 1.7 0.00 0.00 0.00 42 1014.8
20260508095023 62 188 0.0 0.9 0.00 0.00 0.00 39 1014.7
20260508094519 63 188 0.0 0.9 0.00 0.00 0.00 39 1014.7
20260508094015 64 188 0.0 2.6 0.00 0.00 0.00 37 1014.7
20260508093530 65 188 0.9 2.6 0.00 0.00 0.00 36 1014.6
20260508093026 64 188 0.9 1.7 0.00 0.00 0.00 37 1014.7
20260508092527 62 190 0.0 0.9 0.00 0.00 0.00 39 1014.7
20260508092027 64 190 0.0 0.9 0.00 0.00 0.00 37 1014.7
20260508091523 65 190 0.0 0.0 0.00 0.00 0.00 36 1014.7
20260508091018 65 190 0.0 1.7 0.00 0.00 0.00 35 1014.7
20260508090514 66 189 0.0 1.7 0.00 0.00 0.00 34 1014.7
20260508090043 65 190 0.9 0.9 0.00 0.00 0.00 34 1014.7
20260508085523 65 190 0.0 0.0 0.00 0.00 0.00 36 1014.8
20260508085019 65 190 0.0 0.0 0.00 0.00 0.00 35 1014.9
20260508084519 64 189 0.0 0.0 0.00 0.00 0.00 35 1014.9
20260508084015 65 190 0.0 0.0 0.00 0.00 0.00 35 1014.9
20260508083530 65 190 0.0 0.0 0.00 0.00 0.00 34 1014.8
20260508083027 66 190 0.0 0.9 0.00 0.00 0.00 32 1014.8
20260508082523 67 190 0.0 1.7 0.00 0.00 0.00 31 1014.8
20260508082019 68 190 0.9 2.6 0.00 0.00 0.00 30 1014.8
20260508081514 69 189 0.9 2.6 0.00 0.00 0.00 30 1014.9
20260508081013 67 189 0.0 0.0 0.00 0.00 0.00 31 1015.0
20260508080529 65 189 0.0 0.0 0.00 0.00 0.00 35 1015.0
20260508080036 65 189 0.0 0.0 0.00 0.00 0.00 35 1015.2
20260508075517 65 189 0.0 0.0 0.00 0.00 0.00 34 1015.0
20260508075013 67 189 0.0 0.0 0.00 0.00 0.00 33 1015.2
20260508074529 66 189 0.0 0.0 0.00 0.00 0.00 32 1015.3
20260508074025 66 189 0.0 0.0 0.00 0.00 0.00 33 1015.3
20260508073520 67 189 0.0 0.9 0.00 0.00 0.00 33 1015.4
20260508073019 67 189 0.0 1.7 0.00 0.00 0.00 32 1015.4
20260508072515 67 189 0.9 1.7 0.00 0.00 0.00 33 1015.4
20260508072012 67 189 0.9 1.7 0.00 0.00 0.00 32 1015.4
20260508071527 68 189 0.9 1.7 0.00 0.00 0.00 31 1015.5
20260508071023 68 189 0.0 1.7 0.00 0.00 0.00 30 1015.4
20260508070518 67 189 0.0 1.7 0.00 0.00 0.00 32 1015.4
20260508070046 67 188 0.9 1.7 0.00 0.00 0.00 33 1015.4
20260508065528 67 188 0.9 1.7 0.00 0.00 0.00 33 1015.3
20260508065024 68 188 0.0 0.0 0.00 0.00 0.00 31 1015.4
20260508064519 69 188 0.0 0.9 0.00 0.00 0.00 31 1015.3
20260508064014 70 188 0.0 0.9 0.00 0.00 0.00 29 1015.3
20260508063530 70 188 0.0 0.9 0.00 0.00 0.00 28 1015.3
20260508063025 71 188 0.0 0.9 0.00 0.00 0.00 28 1015.4
20260508062521 71 188 0.0 1.7 0.00 0.00 0.00 27 1015.5
20260508062020 72 188 0.0 1.7 0.00 0.00 0.00 26 1015.6
20260508061516 72 189 0.9 1.7 0.00 0.00 0.00 26 1015.5
20260508061012 72 189 0.0 0.9 0.00 0.00 0.00 26 1015.5
20260508060528 72 189 0.0 1.7 0.00 0.00 0.00 26 1015.5
20260508060036 72 189 0.9 1.7 0.00 0.00 0.00 26 1015.7
20260508055517 73 189 0.0 1.7 0.00 0.00 0.00 26 1015.5
20260508055014 72 189 0.0 2.6 0.00 0.00 0.00 26 1015.6
20260508054513 73 189 0.9 5.2 0.00 0.00 0.00 25 1015.5
20260508054029 73 190 0.9 5.2 0.00 0.00 0.00 25 1015.5
20260508053523 74 200 0.9 3.5 0.00 0.00 0.00 24 1015.5
20260508053019 75 175 0.9 6.1 0.00 0.00 0.00 23 1015.4
20260508052514 76 133 1.7 8.7 0.00 0.00 0.00 22 1015.4
20260508052030 76 117 4.3 8.7 0.00 0.00 0.00 21 1015.4
20260508051524 75 80 0.0 5.2 0.00 0.00 0.00 22 1015.3
20260508051019 75 88 0.9 3.5 0.00 0.00 0.00 22 1015.3
20260508050519 76 88 0.0 5.2 0.00 0.00 0.00 21 1015.0
20260508050047 77 178 0.9 7.8 0.00 0.00 0.00 20 1015.0
20260508045528 77 215 2.6 7.8 0.00 0.00 0.00 20 1014.9
20260508045024 77 212 2.6 9.6 0.00 0.00 0.00 20 1014.9
20260508044520 77 227 3.5 10.4 0.00 0.00 0.00 20 1014.8
20260508044016 77 250 3.5 10.4 0.00 0.00 0.00 20 1014.8
20260508043532 77 261 3.5 9.6 0.00 0.00 0.00 20 1014.8
20260508043032 77 227 2.6 10.4 0.00 0.00 0.00 20 1014.7
20260508042527 78 256 3.5 11.3 0.00 0.00 0.00 20 1014.6
20260508042023 78 248 2.6 12.2 0.00 0.00 0.00 20 1014.5
20260508041519 78 253 3.5 12.2 0.00 0.00 0.00 20 1014.5
20260508041015 78 210 2.6 9.6 0.00 0.00 0.00 20 1014.5
20260508040531 78 252 3.5 9.6 0.00 0.00 0.00 20 1014.5
20260508040038 78 235 4.3 9.6 0.00 0.00 0.00 19 1014.4
20260508035523 78 277 3.5 9.6 0.00 0.00 0.00 19 1014.3
20260508035019 78 269 2.6 11.3 0.00 0.00 0.00 19 1014.3
20260508034515 79 240 3.5 11.3 0.00 0.00 0.00 19 1014.0
20260508034031 79 254 6.1 10.4 0.00 0.00 0.00 18 1014.0
20260508033526 79 252 4.3 10.4 0.00 0.00 0.00 18 1013.9
20260508033022 79 261 3.5 10.4 0.00 0.00 0.00 18 1013.7
20260508032518 79 233 1.7 6.1 0.00 0.00 0.00 18 1013.8
20260508032018 79 232 3.5 6.1 0.00 0.00 0.00 18 1013.5
20260508031533 79 223 2.6 8.7 0.00 0.00 0.00 18 1013.5
20260508031027 79 233 2.6 6.1 0.00 0.00 0.00 18 1013.3
20260508030523 79 241 0.9 5.2 0.00 0.00 0.00 18 1013.2
20260508030031 80 244 1.7 5.2 0.00 0.00 0.00 18 1013.2
20260508025533 80 226 2.6 7.8 0.00 0.00 0.00 18 1013.1
20260508025029 80 269 3.5 8.7 0.00 0.00 0.00 18 1013.0
20260508024524 80 226 4.3 10.4 0.00 0.00 0.00 17 1013.0
20260508024024 81 249 5.2 13.0 0.00 0.00 0.00 17 1012.9
20260508023520 81 264 7.8 16.5 0.00 0.00 0.00 17 1012.9
20260508023016 81 238 7.8 16.5 0.00 0.00 0.00 17 1012.8
20260508022531 81 246 4.3 13.0 0.00 0.00 0.00 17 1012.9
20260508022027 82 237 7.0 13.0 0.00 0.00 0.00 16 1012.8
20260508021523 82 174 5.2 9.6 0.00 0.00 0.00 16 1012.7
20260508021019 84 132 2.6 7.8 0.00 0.00 0.00 12 1012.8
20260508020519 84 301 1.7 8.7 0.00 0.00 0.00 12 1012.4
20260508020047 85 290 2.6 8.7 0.00 0.00 0.00 12 1012.2
20260508015528 85 267 2.6 7.8 0.00 0.00 0.00 12 1012.1
20260508015024 85 286 3.5 7.8 0.00 0.00 0.00 12 1011.9
20260508014520 85 290 1.7 7.8 0.00 0.00 0.00 12 1012.0
20260508014016 85 302 3.5 10.4 0.00 0.00 0.00 12 1011.9
20260508013531 85 291 3.5 12.2 0.00 0.00 0.00 12 1011.9
20260508013031 85 290 5.2 12.2 0.00 0.00 0.00 12 1011.9
20260508012527 86 291 5.2 12.2 0.00 0.00 0.00 12 1011.8
20260508012023 86 283 6.1 11.3 0.00 0.00 0.00 12 1011.8
20260508011519 86 277 2.6 7.0 0.00 0.00 0.00 12 1011.6
20260508011015 86 279 2.6 11.3 0.00 0.00 0.00 12 1011.6
20260508010531 86 314 3.5 11.3 0.00 0.00 0.00 12 1011.6
20260508010038 87 296 4.3 9.6 0.00 0.00 0.00 12 1011.4
20260508005523 87 348 1.7 7.0 0.00 0.00 0.00 12 1011.4
20260508005019 87 294 2.6 8.7 0.00 0.00 0.00 12 1011.4
20260508004515 87 276 4.3 9.6 0.00 0.00 0.00 12 1011.3
20260508003514 88 273 4.3 7.8 0.00 0.00 0.00 12 1011.2
20260508003029 88 277 3.5 10.4 0.00 0.00 0.00 12 1011.2
20260508002525 88 295 5.2 10.4 0.00 0.00 0.00 12 1011.1
20260508002021 88 284 4.3 10.4 0.00 0.00 0.00 12 1011.1
20260508001517 89 307 4.3 10.4 0.00 0.00 0.00 12 1011.1
20260508001017 90 345 5.2 10.4 0.00 0.00 0.00 12 1011.2
20260508000513 89 293 1.7 11.3 0.00 0.00 0.00 12 1011.1
20260508000040 89 287 4.3 9.6 0.00 0.00 0.00 12 1011.1
20260507235522 88 285 0.9 7.0 0.00 0.00 0.00 13 1011.2
20260507235017 90 329 2.6 6.1 0.00 0.00 0.00 12 1011.1
20260507234513 90 279 1.7 7.0 0.00 0.00 0.00 12 1011.1
20260507234029 89 281 3.5 7.8 0.00 0.00 0.00 12 1011.2
20260507233529 87 18 0.9 8.7 0.00 0.00 0.00 13 1011.1
20260507233024 88 19 4.3 8.7 0.00 0.00 0.00 12 1011.2
20260507232520 89 282 2.6 8.7 0.00 0.00 0.00 12 1011.1
20260507232016 90 296 3.5 9.6 0.00 0.00 0.00 12 1011.1
20260507231532 89 287 1.7 9.6 0.00 0.00 0.00 12 1011.2
20260507231027 89 356 2.6 6.1 0.00 0.00 0.00 12 1011.2
20260507230523 88 51 1.7 7.8 0.00 0.00 0.00 13 1011.3
20260507230035 89 278 2.6 7.8 0.00 0.00 0.00 12 1011.4
20260507225516 89 340 1.7 7.0 0.00 0.00 0.00 13 1011.4
20260507224514 88 5 3.5 9.6 0.00 0.00 0.00 13 1011.4
20260507224030 88 337 4.3 10.4 0.00 0.00 0.00 13 1011.6
20260507223527 90 15 2.6 13.9 0.00 0.00 0.00 12 1011.4
20260507223023 88 49 5.2 13.9 0.00 0.00 0.00 12 1011.3
20260507222524 87 12 2.6 7.8 0.00 0.00 0.00 13 1011.6
20260507222019 88 12 5.2 7.8 0.00 0.00 0.00 13 1011.6
20260507221515 89 16 1.7 6.1 0.00 0.00 0.00 12 1011.8
20260507221030 89 318 2.6 8.7 0.00 0.00 0.00 12 1011.8
20260507220526 90 354 3.5 8.7 0.00 0.00 0.00 12 1011.9
20260507220033 89 354 0.9 7.8 0.00 0.00 0.00 13 1011.9
20260507215515 87 48 1.7 7.8 0.00 0.00 0.00 12 1011.9
20260507215014 88 33 3.5 9.6 0.00 0.00 0.00 12 1012.0
20260507214530 89 20 4.3 9.6 0.00 0.00 0.00 12 1011.9
20260507214025 89 73 2.6 5.2 0.00 0.00 0.00 11 1012.0
20260507213521 89 348 1.7 8.7 0.00 0.00 0.00 11 1012.1
20260507213018 89 350 1.7 8.7 0.00 0.00 0.00 11 1012.2
20260507212513 89 18 2.6 7.0 0.00 0.00 0.00 11 1012.2
20260507212029 89 357 1.7 7.0 0.00 0.00 0.00 12 1012.2
20260507211525 88 13 4.3 8.7 0.00 0.00 0.00 12 1012.4
20260507211025 89 131 3.5 8.7 0.00 0.00 0.00 11 1012.4
20260507210521 89 64 2.6 9.6 0.00 0.00 0.00 11 1012.5
20260507210028 88 46 3.5 9.6 0.00 0.00 0.00 12 1012.5
20260507205529 88 262 1.7 6.1 0.00 0.00 0.00 11 1012.6
20260507205025 87 321 1.7 8.7 0.00 0.00 0.00 11 1012.7
20260507204521 88 20 5.2 8.7 0.00 0.00 0.00 11 1012.9
20260507204017 87 35 5.2 9.6 0.00 0.00 0.00 11 1012.8
20260507203517 87 356 6.1 9.6 0.00 0.00 0.00 12 1012.9
20260507203013 88 328 1.7 14.8 0.00 0.00 0.00 11 1012.9
20260507202529 88 340 5.2 14.8 0.00 0.00 0.00 12 1012.9
20260507202025 86 339 2.6 9.6 0.00 0.00 0.00 11 1013.0
20260507201521 88 42 4.3 10.4 0.00 0.00 0.00 11 1013.1
20260507201016 87 12 6.1 10.4 0.00 0.00 0.00 11 1013.0
20260507200532 87 360 4.3 8.7 0.00 0.00 0.00 11 1013.1
20260507200044 87 2 4.3 8.7 0.00 0.00 0.00 11 1013.1
20260507195525 88 70 3.5 7.8 0.00 0.00 0.00 11 1013.3
20260507195021 87 223 1.7 7.8 0.00 0.00 0.00 12 1013.3
20260507194516 87 202 2.6 7.8 0.00 0.00 0.00 11 1013.5
20260507194013 89 318 1.7 3.5 0.00 0.00 0.00 11 1013.3
20260507193528 87 348 1.7 7.0 0.00 0.00 0.00 11 1013.6
20260507193024 86 331 1.7 7.8 0.00 0.00 0.00 12 1013.6
20260507192524 86 26 2.6 5.2 0.00 0.00 0.00 12 1013.8
20260507192020 88 2 0.9 5.2 0.00 0.00 0.00 13 1013.8
20260507191515 87 9 1.7 4.3 0.00 0.00 0.00 12 1013.8
20260507191031 87 329 0.9 4.3 0.00 0.00 0.00 12 1013.9
20260507190527 88 11 1.7 4.3 0.00 0.00 0.00 12 1014.1
20260507190034 86 36 1.7 4.3 0.00 0.00 0.00 12 1014.1
20260507185516 88 9 1.7 4.3 0.00 0.00 0.00 13 1014.1
20260507185016 86 16 1.7 4.3 0.00 0.00 0.00 13 1014.3
20260507184531 84 66 1.7 7.0 0.00 0.00 0.00 14 1014.4
20260507184027 85 63 4.3 7.0 0.00 0.00 0.00 14 1014.5
20260507183524 87 328 0.9 4.3 0.00 0.00 0.00 13 1014.6
20260507183020 85 325 1.7 5.2 0.00 0.00 0.00 14 1014.6
20260507182516 85 348 1.7 6.1 0.00 0.00 0.00 15 1014.7
20260507182032 84 41 3.5 7.0 0.00 0.00 0.00 16 1014.7
20260507181527 86 352 1.7 3.5 0.00 0.00 0.00 16 1014.8
20260507181027 84 352 1.7 7.0 0.00 0.00 0.00 16 1014.9
20260507180523 83 356 1.7 7.0 0.00 0.00 0.00 16 1014.9
20260507180031 83 9 1.7 5.2 0.00 0.00 0.00 17 1014.9
20260507175532 85 24 1.7 4.3 0.00 0.00 0.00 16 1015.0
20260507175028 82 38 2.6 4.3 0.00 0.00 0.00 16 1015.0
20260507174524 82 64 2.6 4.3 0.00 0.00 0.00 16 1015.0
20260507174020 81 58 1.7 4.3 0.00 0.00 0.00 17 1015.2
20260507173519 82 47 2.6 4.3 0.00 0.00 0.00 17 1015.3
20260507173015 81 132 0.9 3.5 0.00 0.00 0.00 18 1015.3
20260507172531 81 131 2.6 3.5 0.00 0.00 0.00 18 1015.4
20260507172027 83 155 0.9 4.3 0.00 0.00 0.00 18 1015.4
20260507171523 81 219 1.7 7.0 0.00 0.00 0.00 19 1015.5
20260507171019 81 227 2.6 7.0 0.00 0.00 0.00 19 1015.6
20260507170514 80 102 0.0 2.6 0.00 0.00 0.00 20 1015.5
20260507170027 78 104 0.9 4.3 0.00 0.00 0.00 20 1015.5
20260507165528 77 105 2.6 4.3 0.00 0.00 0.00 21 1015.8
20260507165024 77 210 0.9 6.1 0.00 0.00 0.00 20 1015.7
20260507164519 77 113 2.6 7.0 0.00 0.00 0.00 21 1015.7
20260507164015 77 211 0.9 7.0 0.00 0.00 0.00 20 1015.8
20260507163531 77 116 1.7 4.3 0.00 0.00 0.00 22 1015.8
20260507163027 75 126 2.6 6.1 0.00 0.00 0.00 22 1015.8
20260507162527 75 141 1.7 6.1 0.00 0.00 0.00 23 1015.9
20260507162023 75 126 1.7 5.2 0.00 0.00 0.00 23 1016.0
20260507161519 75 210 1.7 5.2 0.00 0.00 0.00 23 1016.0
20260507161015 73 90 3.5 7.0 0.00 0.00 0.00 25 1016.1
20260507160530 73 96 4.3 7.0 0.00 0.00 0.00 24 1016.2
20260507160038 74 92 1.7 6.1 0.00 0.00 0.00 24 1016.3
20260507155519 74 61 0.9 2.6 0.00 0.00 0.00 24 1016.1
20260507155019 74 60 1.7 4.3 0.00 0.00 0.00 25 1016.3
20260507154515 73 61 1.7 4.3 0.00 0.00 0.00 26 1016.4
20260507154031 72 87 1.7 6.1 0.00 0.00 0.00 26 1016.4
20260507153526 72 90 2.6 6.1 0.00 0.00 0.00 25 1016.4
20260507153022 72 85 0.9 3.5 0.00 0.00 0.00 26 1016.4
20260507152518 71 88 1.7 3.5 0.00 0.00 0.00 27 1016.5
20260507152014 69 72 1.7 3.5 0.00 0.00 0.00 27 1016.4
20260507151514 70 58 1.7 4.3 0.00 0.00 0.00 29 1016.5
20260507151031 69 89 1.7 4.3 0.00 0.00 0.00 28 1016.4
20260507150527 68 136 1.7 4.3 0.00 0.00 0.00 29 1016.5
20260507150035 67 141 1.7 4.3 0.00 0.00 0.00 30 1016.5
20260507145516 67 152 0.9 4.3 0.00 0.00 0.00 30 1016.5
20260507145012 67 119 1.7 4.3 0.00 0.00 0.00 31 1016.5
20260507144528 66 118 2.6 4.3 0.00 0.00 0.00 30 1016.5
20260507144024 66 137 0.9 4.3 0.00 0.00 0.00 33 1016.5
20260507143523 65 164 0.9 5.2 0.00 0.00 0.00 34 1016.6
20260507143019 64 148 2.6 5.2 0.00 0.00 0.00 33 1016.7
20260507142514 65 140 1.7 5.2 0.00 0.00 0.00 34 1016.6
20260507142030 64 115 2.6 4.3 0.00 0.00 0.00 35 1016.6
20260507141526 64 125 1.7 4.3 0.00 0.00 0.00 34 1016.5
20260507141022 64 159 0.9 5.2 0.00 0.00 0.00 35 1016.5
20260507140518 64 130 1.7 4.3 0.00 0.00 0.00 35 1016.5
20260507140030 63 159 0.9 4.3 0.00 0.00 0.00 35 1016.4
20260507135531 63 128 1.7 4.3 0.00 0.00 0.00 36 1016.4
20260507135027 62 159 0.9 3.5 0.00 0.00 0.00 38 1016.5
20260507134524 61 142 0.9 3.5 0.00 0.00 0.00 38 1016.4
20260507134020 61 128 0.0 1.7 0.00 0.00 0.00 40 1016.4
20260507133516 60 113 0.9 2.6 0.00 0.00 0.00 41 1016.4
20260507133031 59 111 0.9 2.6 0.00 0.00 0.00 43 1016.4
20260507132531 58 148 0.0 3.5 0.00 0.00 0.00 44 1016.3
20260507132028 58 143 0.9 3.5 0.00 0.00 0.00 46 1016.3
20260507131524 57 146 0.0 2.6 0.00 0.00 0.00 47 1016.3
20260507131020 57 144 0.0 3.5 0.00 0.00 0.00 48 1016.3
20260507130516 56 143 0.9 3.5 0.00 0.00 0.00 49 1016.2
20260507130043 56 143 0.0 1.7 0.00 0.00 0.00 49 1016.2
20260507125525 55 142 0.0 0.9 0.00 0.00 0.00 50 1016.2
20260507125024 55 136 0.0 0.0 0.00 0.00 0.00 51 1016.1
20260507124520 55 136 0.0 0.0 0.00 0.00 0.00 51 1016.1
20260507124016 55 136 0.0 0.0 0.00 0.00 0.00 51 1016.1
20260507123512 55 136 0.0 0.0 0.00 0.00 0.00 50 1016.0
20260507123028 55 136 0.0 0.0 0.00 0.00 0.00 50 1016.0
20260507122524 55 136 0.0 0.0 0.00 0.00 0.00 50 1016.0
20260507122020 55 135 0.0 0.0 0.00 0.00 0.00 50 1016.0
20260507121519 55 136 0.0 0.9 0.00 0.00 0.00 50 1016.0
20260507121015 56 136 0.0 0.9 0.00 0.00 0.00 48 1015.9
20260507120531 56 136 0.0 0.0 0.00 0.00 0.00 48 1015.9
20260507120039 56 136 0.0 0.9 0.00 0.00 0.00 49 1015.9